Find Starlink 5332

NORAD ID: 55285 Int'l Des: 2023-010 Owner: SPXS Country: US Constellation: starlink operational
LEOCIRCULAR

現在のビュー

3D地球を読み込み中...

About Starlink 5332

Starlink 5332 (NORAD 55285) is a starlink constellation satellite (v1.5) launched Jan 19, 2023 by SPXS of US. It operates in LEO, CIRCULAR orbit with a mass of 305.00 kg.

次回通過

Passes for default location (London). Set your location on the main map for personalized predictions.

高度履歴

Loading altitude history...

軌道要素

1 55285U 23010S 26237.59055224 .00000264 00000-0 29902-4 0 9991
2 55285 69.9994 298.5174 0003248 270.2573 89.8214 14.98333071199945
Epoch: Aug 25, 2026 • Age: 15 hours

現在のステータス

高度 582.3 km
遠地点 / 近地点 N/A
速度 7.57 km/s
衛星直下点 54.18°N, 80.25°W
打ち上げ日 Jan 19, 2023
運用期間 3.5 years
タイプ internet

技術仕様

分類 Payload
質量 305.00 kg
乾燥質量 290.00 kg
総質量 305.00 kg
長さ 0.20 m
直径 2.80 m
スパン 9.00 m
形状 Box + pan
製造者 SPXS
バスタイプ Starlink
フェーズステータス In Orbit
所有者/国 SPXS/US

Most Searched